Regional Weather Roundup
Issued by NWS

Home | Current Version | Previous Version | Text Only | Print | Product List | Glossary On
Versions: 1 2 3 4 5 6 7 8 9 10 11 12 13 14 15 16 17 18 19 20 21 22 23 24 25 26 27 28
000
ASUS45 KREV 261410
RWRNV
NEVADA REGIONAL WEATHER ROUNDUP
NATIONAL WEATHER SERVICE RENO NV
700 AM PDT SAT MAY 26 2018

NOTE: "FAIR" INDICATES FEW OR NO CLOUDS BELOW 12,000 FEET WITH NO
SIGNIFICANT WEATHER AND/OR OBSTRUCTIONS TO VISIBILITY.

NVZ001-003-004-261500-
WESTERN NEVADA

CITY           SKY/WX    TMP DP  RH WIND       PRES   REMARKS
RENO           PTSUNNY   49  39  68 VRB3      30.01R
CARSON CITY    FAIR      45  39  81 NW3       30.03R
MINDEN           N/A     39  39 100 S5        30.03S
SLIDE MTN        N/A     30  30 100 NW7         N/A
FALLON         PTSUNNY   49  41  74 W3        29.99R
LOVELOCK       MOSUNNY   49  41  74 NE3       29.97R
$$

NVZ002-CAZ072-073-261500-
NORTHERN AND CENTRAL SIERRA

CITY           SKY/WX    TMP DP  RH WIND       PRES   REMARKS
S. LAKE TAHOE  CLOUDY    37  34  89 S5        30.04R
TRUCKEE        CLOUDY    37  36  93 CALM      30.05S
SQUAW VLY 8000 NOT AVBL
MAMMOTH LAKES  FAIR      40  31  70 W7        30.02S
BRIDGEPORT     FAIR      32  26  78 CALM      30.02R
$$

NVZ030-031-036-261500-
NORTHERN NEVADA

CITY           SKY/WX    TMP DP  RH WIND       PRES   REMARKS
ELKO           MOSUNNY   51  43  74 SW9       29.93R
WINNEMUCCA     PTSUNNY   46  43  89 CALM      29.96S
WENDOVER       SUNNY     65  34  31 NE7       29.85R
$$

NVZ035-037-261500-
CENTRAL NEVADA

CITY           SKY/WX    TMP DP  RH WIND       PRES   REMARKS
ELY            SUNNY     46  26  45 CALM      29.96R
EUREKA           N/A     45  37  73 CALM      29.96R
$$

NVZ013-014-261500-
SOUTH CENTRAL NEVADA

CITY           SKY/WX    TMP DP  RH WIND       PRES   REMARKS
TONOPAH        SUNNY     49  39  68 N6        29.95R
$$

NVZ017-020-022-261500-
SOUTHERN NEVADA

CITY           SKY/WX    TMP DP  RH WIND       PRES   REMARKS
LAS VEGAS      SUNNY     63  39  41 S17G25    29.81R
N. LAS VEGAS   SUNNY     64  36  35 SW18G24   29.81R
NELLIS AFB     SUNNY     65  38  37 S17       29.82R
HENDERSON      SUNNY     62  38  40 SW18      29.87S
MERCURY        SUNNY     57  38  48 W10       29.89R
$$




USA.gov is the U.S. government's official web portal to all federal, state and local government web resources and services.